Weather History for Exeter, United Kingdom

Change the Weather History Date:

Thursday, November 8, 2012

  Actual Average Record
Temperature  
Mean Temperature 49 °F -  
Max Temperature 55 °F 50 °F 62 °F (2006)
Min Temperature 43 °F 38 °F 32 °F (1996)
Degree Days  
Heating Degree Days 16    
Moisture  
Dew Point 46 °F    
Average Humidity 88    
Maximum Humidity 100    
Minimum Humidity 65    
Precipitation  
Precipitation 0.00 in - - ()
Sea Level Pressure  
Sea Level Pressure 30.11 in    
Wind  
Wind Speed 5 mph ()    
Max Wind Speed 9 mph    
Max Gust Speed -    
Visibility 6.0 miles    
Events      
Averages and records for this station are not official NWS values.
T = Trace of Precipitation, MM = Missing Value Source: Averaged Metar Reports

Daily Weather History Graph

Daily Weather History Graph

Search for Another Location

Airport:

Trip Planner

Search our weather history database for the weather conditions in past years. The results will help you decide how hot, cold, wet, or windy it might be!

Date:

Astronomy

Nov. 08, 2012 Rise Set
Actual Time 7:17 AM GMT 4:36 PM GMT
Civil Twilight 6:42 AM GMT 5:11 PM GMT
Nautical Twilight 6:02 AM GMT 5:51 PM GMT
Astronomical Twilight 5:24 AM GMT 6:29 PM GMT
Moon 12:19 AM GMT (11/8) 1:44 PM GMT (11/8)
Length of Visible Light 10h 29m
Length of Day
9h 18m
Waning Crescent, 35% of the Moon is Illuminated
Nov 8
Waning Crescent
Nov 13
New
Nov 20
First Quarter
Nov 28
Full
Dec 6
Last Quarter

Hourly Weather History & Observations

Time (GMT) Temp. Windchill Dew Point Humidity Pressure Visibility Wind Dir Wind Speed Gust Speed Precip Events Conditions
12:20 AM 50.0 °F - 44.6 °F 82% 30.21 in 6.2 mi SSW 5.8 mph - N/A   Mostly Cloudy
12:50 AM 48.2 °F - 44.6 °F 87% 30.21 in 6.2 mi South 8.1 mph - N/A   Mostly Cloudy
1:20 AM 48.2 °F - 44.6 °F 87% 30.21 in 6.2 mi South 8.1 mph - N/A   Mostly Cloudy
2:50 AM 47 °F - 44 °F 87%  in - SW 4.6 mph - -  
5:50 AM 47 °F - 47 °F 100%  in - SW 5.8 mph - -  
6:20 AM 48.2 °F - 46.4 °F 93% 30.12 in 3.7 mi South 6.9 mph - N/A   Light Drizzle
7:20 AM 48.2 °F - 46.4 °F 93% 30.12 in 3.7 mi South 4.6 mph - N/A   Overcast
7:50 AM 48.2 °F - 46.4 °F 93% 30.15 in 3.7 mi South 5.8 mph - N/A   Overcast
8:20 AM 48.2 °F - 46.4 °F 93% 30.15 in 6.2 mi SW 3.5 mph - N/A   Mostly Cloudy
8:50 AM 48 °F - 48 °F 100%  in - SW 2.3 mph - -  
8:50 AM 48.2 °F - 46.4 °F 93% 30.15 in 6.2 mi SSW 5.8 mph - N/A   Scattered Clouds
9:20 AM 48.2 °F - 48.2 °F 100% 30.15 in 6.2 mi South 3.5 mph - N/A   Mostly Cloudy
9:50 AM 50.0 °F - 48.2 °F 94% 30.15 in 6.2 mi SSW 4.6 mph - N/A   Mostly Cloudy
10:20 AM 50.0 °F - 48.2 °F 94% 30.15 in 6.2 mi SW 1.2 mph - N/A   Mostly Cloudy
10:50 AM 51.8 °F - 48.2 °F 88% 30.15 in 6.2 mi West 4.6 mph - N/A   Mostly Cloudy
11:20 AM 51.8 °F - 48.2 °F 88% 30.15 in 6.2 mi West 5.8 mph - N/A   Mostly Cloudy
11:50 AM 53 °F - 49 °F 81%  in - WNW 4.6 mph - -  
11:50 AM 53.6 °F - 48.2 °F 82% 30.12 in 6.2 mi West 4.6 mph - N/A   Mostly Cloudy
12:20 PM 53.6 °F - 48.2 °F 82% 30.12 in 6.2 mi NW 4.6 mph - N/A   Mostly Cloudy
12:50 PM 53.6 °F - 48.2 °F 82% 30.12 in 6.2 mi NW 6.9 mph - N/A   Mostly Cloudy
1:20 PM 53.6 °F - 48.2 °F 82% 30.12 in 6.2 mi WNW 9.2 mph - N/A   Mostly Cloudy
1:50 PM 53.6 °F - 46.4 °F 77% 30.12 in 6.2 mi NW 8.1 mph - N/A   Mostly Cloudy
2:20 PM 55.4 °F - 44.6 °F 67% 30.09 in 6.2 mi West 5.8 mph - N/A   Mostly Cloudy
2:50 PM 53 °F - 45 °F 65%  in - WNW 5.8 mph - -  
2:50 PM 53.6 °F - 44.6 °F 72% 30.09 in 6.2 mi West 6.9 mph - N/A   Mostly Cloudy
3:20 PM 53.6 °F - 44.6 °F 72% 30.09 in 6.2 mi West 5.8 mph - N/A   Mostly Cloudy
3:50 PM 53.6 °F - 46.4 °F 77% 30.09 in 6.2 mi West 5.8 mph - N/A   Scattered Clouds
4:20 PM 51.8 °F - 46.4 °F 82% 30.09 in 6.2 mi Variable 3.5 mph - N/A   Scattered Clouds
4:50 PM 50.0 °F - 46.4 °F 87% 30.09 in 6.2 mi WSW 2.3 mph - N/A   Scattered Clouds
5:20 PM 50.0 °F - 44.6 °F 82% 30.09 in 6.2 mi WSW 3.5 mph - N/A   Partly Cloudy
5:50 PM 46 °F - 46 °F 99%  in - ESE 1.2 mph - -  
5:50 PM 48.2 °F - 44.6 °F 87% 30.09 in 6.2 mi Variable 2.3 mph - N/A   Scattered Clouds
6:20 PM 48.2 °F - 44.6 °F 87% 30.09 in 6.2 mi Calm Calm - N/A   Scattered Clouds
6:50 PM 48.2 °F - 44.6 °F 87% 30.09 in 6.2 mi Variable 2.3 mph - N/A   Partly Cloudy
7:20 PM 46.4 °F - 44.6 °F 93% 30.09 in 6.2 mi NW 2.3 mph - N/A   Partly Cloudy
7:50 PM 44.6 °F - 42.8 °F 93% 30.09 in 6.2 mi SSE 2.3 mph - N/A   Partly Cloudy
8:20 PM 44.6 °F 42.2 °F 42.8 °F 93% 30.06 in 6.2 mi South 4.6 mph - N/A   Partly Cloudy
8:50 PM 43 °F - 43 °F 98%  in - Calm Calm - -  
8:50 PM 44.6 °F 43.1 °F 42.8 °F 93% 30.06 in 6.2 mi SSW 3.5 mph - N/A   Scattered Clouds
9:20 PM 44.6 °F 43.1 °F 42.8 °F 93% 30.06 in 6.2 mi Variable 3.5 mph - N/A   Scattered Clouds
9:50 PM 44.6 °F 43.1 °F 42.8 °F 93% 30.06 in 6.2 mi Variable 3.5 mph - N/A   Scattered Clouds
10:20 PM 44.6 °F - 42.8 °F 93% 30.06 in 6.2 mi Variable 2.3 mph - N/A   Mostly Cloudy
10:50 PM 44.6 °F 42.2 °F 42.8 °F 93% 30.06 in 6.2 mi South 4.6 mph - N/A   Mostly Cloudy
11:20 PM 44.6 °F 43.1 °F 42.8 °F 93% 30.04 in 6.2 mi Variable 3.5 mph - N/A   Mostly Cloudy
11:50 PM 44 °F - 44 °F 100%  in - West 2.3 mph - -  
11:50 PM 44.6 °F 43.1 °F 42.8 °F 93% 30.04 in 6.2 mi Variable 3.5 mph - N/A   Mostly Cloudy